Weather History for PAZK - November, 2012

Change the Weather History Date:

Tuesday, November 20, 2012

  Actual Average Record
Temperature  
Mean Temperature -8 °F -  
Max Temperature -5 °F - - ()
Min Temperature -11 °F - - ()
Degree Days  
Heating Degree Days 73    
Moisture  
Dew Point -13 °F    
Average Humidity 84    
Maximum Humidity 100    
Minimum Humidity 59    
Precipitation  
Precipitation 0.00 in - - ()
Sea Level Pressure  
Sea Level Pressure 29.54 in    
Wind  
Wind Speed 4 mph (ENE)    
Max Wind Speed 8 mph    
Max Gust Speed -    
Visibility 10 miles    
Events      
T = Trace of Precipitation, MM = Missing Value Source: NWS Daily Summary

Daily Weather History Graph

Daily Weather History Graph

Search for Another Location

Airport or City:

Trip Planner

Search our weather history database for the weather conditions in past years. The results will help you decide how hot, cold, wet, or windy it might be!

Date:

Astronomy

Nov. 20, 2012 Rise Set
Actual Time 9:15 AM AKST 3:52 PM AKST
Civil Twilight 8:19 AM AKST 4:48 PM AKST
Nautical Twilight 7:22 AM AKST 5:45 PM AKST
Astronomical Twilight 6:29 AM AKST 6:38 PM AKST
Moon 1:43 PM AKST (11/20) No Moon Set
Length of Visible Light 8h 29m
Length of Day
6h 37m
First Quarter, 53% of the Moon is Illuminated
Nov 20
First Quarter
Nov 28
Full
Dec 6
Last Quarter
Dec 12
New
Dec 19
First Quarter

Hourly Weather History & Observations

Time (AKST) Temp. Windchill Dew Point Humidity Pressure Visibility Wind Dir Wind Speed Gust Speed Precip Events Conditions
12:16 AM -9.4 °F -22.7 °F -20.2 °F 59% 29.46 in 10.0 mi NE 5.8 mph - N/A   Clear
12:36 AM -7.6 °F -20.6 °F -7.6 °F 100% 29.47 in 10.0 mi NE 5.8 mph - N/A   Clear
12:56 AM -7.6 °F -20.6 °F -13.0 °F 77% 29.47 in 10.0 mi NE 5.8 mph - N/A   Clear
1:16 AM -7.6 °F -20.6 °F -11.2 °F 84% 29.48 in 10.0 mi NE 5.8 mph - N/A   Clear
1:36 AM -7.6 °F -20.6 °F -9.4 °F 92% 29.48 in 10.0 mi NE 5.8 mph - N/A   Clear
1:56 AM -9.4 °F -22.7 °F -14.8 °F 77% 29.49 in 10.0 mi NE 5.8 mph - N/A   Clear
2:16 AM -9.4 °F -22.7 °F -14.8 °F 77% 29.49 in 10.0 mi NE 5.8 mph - N/A   Clear
2:36 AM -9.4 °F -20.9 °F -13.0 °F 84% 29.49 in 10.0 mi NE 4.6 mph - N/A   Clear
2:56 AM -9.4 °F -18.6 °F -14.8 °F 77% 29.50 in 10.0 mi NE 3.5 mph - N/A   Clear
3:16 AM -9.4 °F - -16.6 °F 71% 29.50 in 10.0 mi Calm Calm - N/A   Clear
3:36 AM -11.2 °F - -14.8 °F 84% 29.50 in 10.0 mi Calm Calm - N/A   Clear
3:56 AM -11.2 °F - -16.6 °F 77% 29.50 in 10.0 mi Calm Calm - N/A   Clear
4:16 AM -11.2 °F - -13.0 °F 92% 29.50 in 10.0 mi Calm Calm - N/A   Clear
4:36 AM -11.2 °F -23.0 °F -13.0 °F 92% 29.50 in 10.0 mi NE 4.6 mph - N/A   Scattered Clouds
4:56 AM -9.4 °F -25.6 °F -13.0 °F 84% 29.50 in 10.0 mi NNE 8.1 mph - N/A   Overcast
5:16 AM -7.6 °F -22.1 °F -11.2 °F 84% 29.50 in 10.0 mi NNE 6.9 mph - N/A   Mostly Cloudy
5:36 AM -7.6 °F -20.6 °F -13.0 °F 77% 29.51 in 10.0 mi NE 5.8 mph - N/A   Scattered Clouds
5:56 AM -9.4 °F -20.9 °F -13.0 °F 84% 29.51 in 10.0 mi NNE 4.6 mph - N/A   Overcast
6:16 AM -7.6 °F -16.5 °F -11.2 °F 84% 29.51 in 10.0 mi NE 3.5 mph - N/A   Overcast
6:36 AM -9.4 °F -18.6 °F -14.8 °F 77% 29.51 in 10.0 mi ENE 3.5 mph - N/A   Mostly Cloudy
6:56 AM -9.4 °F -18.6 °F -11.2 °F 92% 29.52 in 10.0 mi ENE 3.5 mph - N/A   Scattered Clouds
7:16 AM -9.4 °F -20.9 °F -13.0 °F 84% 29.52 in 10.0 mi ENE 4.6 mph - N/A   Overcast
7:36 AM -9.4 °F -18.6 °F -11.2 °F 92% 29.53 in 10.0 mi ENE 3.5 mph - N/A   Overcast
7:56 AM -9.4 °F -18.6 °F -11.2 °F 92% 29.53 in 10.0 mi ENE 3.5 mph - N/A   Mostly Cloudy
8:16 AM -9.4 °F - -14.8 °F 77% 29.53 in 10.0 mi Calm Calm - N/A   Mostly Cloudy
8:36 AM -9.4 °F -20.9 °F -11.2 °F 92% 29.53 in 10.0 mi ENE 4.6 mph - N/A   Mostly Cloudy
8:56 AM -9.4 °F -20.9 °F -13.0 °F 84% 29.53 in 10.0 mi ENE 4.6 mph - N/A   Mostly Cloudy
9:16 AM -9.4 °F -20.9 °F -14.8 °F 77% 29.53 in 10.0 mi ENE 4.6 mph - N/A   Partly Cloudy
9:36 AM -9.4 °F -20.9 °F -13.0 °F 84% 29.54 in 10.0 mi ENE 4.6 mph - N/A   Scattered Clouds
9:56 AM -9.4 °F -20.9 °F -11.2 °F 92% 29.54 in 10.0 mi ENE 4.6 mph - N/A   Overcast
10:16 AM -9.4 °F - -13.0 °F 84% 29.55 in 10.0 mi Calm Calm - N/A   Mostly Cloudy
10:36 AM -9.4 °F - -13.0 °F 84% 29.55 in 10.0 mi Calm Calm - N/A   Scattered Clouds
10:56 AM -9.4 °F - -11.2 °F 92% 29.55 in 10.0 mi Calm Calm - N/A   Scattered Clouds
11:16 AM -9.4 °F - -11.2 °F 92% 29.56 in 10.0 mi Calm Calm - N/A   Partly Cloudy
11:36 AM -9.4 °F - -14.8 °F 77% 29.56 in 10.0 mi Calm Calm - N/A   Clear
11:56 AM -7.6 °F - -7.6 °F 100% 29.56 in 10.0 mi Calm Calm - N/A   Clear
12:16 PM -7.6 °F -16.5 °F -13.0 °F 77% 29.57 in 10.0 mi ENE 3.5 mph - N/A   Clear
12:36 PM -7.6 °F - -7.6 °F 100% 29.57 in 10.0 mi Calm Calm - N/A   Clear
12:56 PM -5.8 °F - - N/A% 29.56 in 10.0 mi Calm Calm - N/A   Clear
1:16 PM -5.8 °F -14.5 °F -7.6 °F 92% 29.56 in 10.0 mi East 3.5 mph - N/A   Partly Cloudy
1:36 PM -5.8 °F -16.7 °F -7.6 °F 92% 29.56 in 10.0 mi East 4.6 mph - N/A   Partly Cloudy
1:56 PM -5.8 °F -14.5 °F -9.4 °F 84% 29.56 in 10.0 mi East 3.5 mph - N/A   Clear
2:16 PM -5.8 °F - -9.4 °F 84% 29.56 in 10.0 mi Calm Calm - N/A   Clear
2:36 PM -7.6 °F - -11.2 °F 84% 29.56 in 10.0 mi Calm Calm - N/A   Clear
2:56 PM -7.6 °F - -11.2 °F 84% 29.56 in 10.0 mi Calm Calm - N/A   Clear
3:16 PM -7.6 °F - -13.0 °F 77% 29.55 in 10.0 mi Calm Calm - N/A   Clear
3:36 PM -9.4 °F - -14.8 °F 77% 29.56 in 10.0 mi Calm Calm - N/A   Clear
3:56 PM -9.4 °F - -13.0 °F 84% 29.55 in 10.0 mi Calm Calm - N/A   Clear
4:16 PM -11.2 °F - -16.6 °F 77% 29.55 in 10.0 mi Calm Calm - N/A   Clear
4:36 PM -11.2 °F -20.6 °F -13.0 °F 92% 29.56 in 10.0 mi East 3.5 mph - N/A   Clear
4:56 PM -11.2 °F -20.6 °F -14.8 °F 84% 29.55 in 10.0 mi East 3.5 mph - N/A   Clear
5:16 PM -11.2 °F -23.0 °F -13.0 °F 92% 29.55 in 10.0 mi East 4.6 mph - N/A   Clear
5:36 PM -11.2 °F -23.0 °F -14.8 °F 84% 29.55 in 10.0 mi East 4.6 mph - N/A   Clear
5:56 PM -11.2 °F -20.6 °F -14.8 °F 84% 29.55 in 10.0 mi East 3.5 mph - N/A   Clear
6:16 PM -11.2 °F -23.0 °F -14.8 °F 84% 29.56 in 10.0 mi East 4.6 mph - N/A   Clear
6:36 PM -11.2 °F -20.6 °F -13.0 °F 92% 29.56 in 10.0 mi East 3.5 mph - N/A   Clear
6:56 PM -9.4 °F -20.9 °F -14.8 °F 77% 29.56 in 10.0 mi East 4.6 mph - N/A   Clear
7:16 PM -9.4 °F -20.9 °F -11.2 °F 92% 29.56 in 10.0 mi East 4.6 mph - N/A   Clear
7:36 PM -11.2 °F -23.0 °F -14.8 °F 84% 29.56 in 10.0 mi East 4.6 mph - N/A   Clear
7:56 PM -11.2 °F -24.8 °F -16.6 °F 77% 29.56 in 10.0 mi NE 5.8 mph - N/A   Clear
8:16 PM -11.2 °F -26.4 °F -13.0 °F 92% 29.55 in 10.0 mi NE 6.9 mph - N/A   Clear
8:36 PM -9.4 °F -24.3 °F -11.2 °F 92% 29.55 in 10.0 mi NE 6.9 mph - N/A   Clear
8:56 PM -9.4 °F -22.7 °F -16.6 °F 71% 29.55 in 10.0 mi NE 5.8 mph - N/A   Clear
9:16 PM -9.4 °F -24.3 °F -9.4 °F 100% 29.55 in 10.0 mi NE 6.9 mph - N/A   Clear
9:36 PM -11.2 °F -26.4 °F -20.2 °F 64% 29.55 in 10.0 mi NE 6.9 mph - N/A   Clear
9:56 PM -11.2 °F -24.8 °F -11.2 °F 100% 29.55 in 10.0 mi NE 5.8 mph - N/A   Clear
10:16 PM -11.2 °F -24.8 °F -18.4 °F 70% 29.55 in 10.0 mi NE 5.8 mph - N/A   Clear
10:36 PM -11.2 °F -26.4 °F -16.6 °F 77% 29.55 in 10.0 mi ENE 6.9 mph - N/A   Clear
10:56 PM -11.2 °F -24.8 °F -14.8 °F 84% 29.55 in 10.0 mi ENE 5.8 mph - N/A   Clear
11:16 PM -11.2 °F -24.8 °F -16.6 °F 77% 29.56 in 10.0 mi ENE 5.8 mph - N/A   Clear
11:36 PM -11.2 °F -24.8 °F -11.2 °F 100% 29.56 in 10.0 mi ENE 5.8 mph - N/A   Clear
11:56 PM -11.2 °F -24.8 °F -20.2 °F 64% 29.56 in 10.0 mi ENE 5.8 mph - N/A   Clear